Location: Newark
(46.9000°N, 28.3500°E)
Time: 10:17:36
(UTC+00:00)

Explorer 7 - Pass Details

Date: 01 September 2019
Orbit: 485 x 680 km, 50.3° (Epoch: 20 October)

Event Time Altitude Azimuth Distance (km) Brightness Sun altitude
Rises 08:39:55 0° 291° (WNW) 3,005 10.3 47.2°
Reaches altitude 10° 08:42:19 10° 291° (WNW) 2,070 9.5 47.4°
Maximum altitude 08:47:07 88° 19° (NNE) 639 8.0 47.8°
Drops below altitude 10° 08:51:38 10° 112° (ESE) 1,954 10.3 48.2°
Sets 08:53:51 0° 112° (ESE) 2,822 10.9 48.4°
